Location: Wildcat Hills Observatory
(41.6350°N, 103.6812°W)
Time: 08:32:10
(UTC-06:00)

Cosmos 1634 Rocket - Visible Passes

Search period start: 25 October 2014 00:00
Search period end: 03 November 2014 23:00
Orbit: 961 x 992 km, 82.9° (Epoch: 24 October)

Date Brightness Start Highest point End Pass type
(mag) Time Alt. Az. Time Alt. Az. Time Alt. Az.
25 Oct 6.1 04:51:05 10° SE 04:56:07 26° E 05:01:11 10° NNE visible
25 Oct 4.3 06:35:10 10° SSW 06:41:09 47° WNW 06:47:13 10° N visible
26 Oct 5.0 05:15:31 10° SSE 05:21:27 48° E 05:27:27 10° NNE visible
27 Oct 6.9 04:00:29 10° E 04:02:38 12° ENE 04:04:47 10° ENE visible
27 Oct 4.0 05:40:43 10° S 05:46:58 85° E 05:53:18 10° N visible
27 Oct 6.8 18:23:43 10° NW 18:27:36 17° W 18:31:29 10° WSW visible
28 Oct 6.2 04:23:03 10° SE 04:27:45 23° E 04:32:29 10° NE visible
28 Oct 4.1 06:06:33 10° SSW 06:12:39 54° WNW 06:18:50 10° N visible
29 Oct 5.2 04:47:16 10° SSE 04:53:03 41° E 04:58:54 10° NNE visible
29 Oct 4.7 06:33:06 10° SW 06:38:32 31° WNW 06:44:02 10° NNW visible
30 Oct 4.1 05:12:17 10° S 05:18:31 75° E 05:24:50 10° N visible
31 Oct 6.3 03:55:05 10° SE 03:59:24 20° E 04:03:44 10° NE visible
31 Oct 4.0 05:37:59 10° SSW 05:44:10 63° W 05:50:27 10° N visible
01 Nov 5.4 04:19:03 10° SSE 04:24:39 36° E 04:30:19 10° NNE visible
01 Nov 4.5 06:04:20 10° SW 06:10:00 35° WNW 06:15:44 10° N visible
02 Nov 4.3 03:43:54 10° S 03:50:05 65° E 03:56:20 10° NNE visible
02 Nov 5.2 05:31:34 10° WSW 05:36:02 20° WNW 05:40:32 10° NNW visible
03 Nov 6.4 02:27:20 10° ESE 02:31:04 17° E 02:34:55 10° NE visible
03 Nov 3.9 04:12:17 29° SSW 04:15:42 72° W 04:22:02 10° N visible
03 Nov 5.7 06:00:56 10° WNW 06:02:17 11° WNW 06:03:39 10° NW visible
